Location: Arleux
(50.3632°N, 2.8721°E)
Time: 18:41:03
(UTC+00:00)

CENTAUR R/B - Pass Details

Date: 15 December 2019
Orbit: 773 x 1415 km, 63.4° (Epoch: 16 January)

Event Time Altitude Azimuth Distance (km) Brightness Sun altitude
Rises 05:39:32 0° 187° (S) 3,420 5.5 -18.3°
Reaches altitude 10° 05:42:03 10° 178° (S) 2,560 4.9 -17.9°
Maximum altitude 05:47:22 34° 115° (ESE) 1,560 4.3 -17.1°
Drops below altitude 10° 05:53:26 10° 53° (NE) 2,960 5.5 -16.2°
Sets 05:56:34 0° 46° (NE) 4,031 6.1 -15.7°
